Location: Desert Center
(33.7130°N, 115.4010°W)
Time: 08:22:32
(UTC-08:00)

ISS - Visible Passes

Search period start: 03 December 2021 00:00
Search period end: 13 December 2021 00:00
Orbit: 417 x 423 km, 51.6° (Epoch: 03 December)

Date Brightness Start Highest point End Pass type
(mag) Time Alt. Az. Time Alt. Az. Time Alt. Az.
04 Dec -1.2 18:22:40 10° NNW 18:23:12 13° NNW 18:23:12 13° NNW visible
05 Dec -2.2 17:35:48 10° NNW 17:38:21 19° NNE 17:38:28 19° NE visible
06 Dec -2.6 18:24:42 10° NW 18:27:03 41° WNW 18:27:03 41° WNW visible
07 Dec -3.7 17:37:30 10° NW 17:40:51 56° NE 17:43:00 20° ESE visible
08 Dec -1.1 18:27:40 10° W 18:30:12 20° SW 18:32:42 10° S visible
09 Dec -2.1 17:39:56 10° WNW 17:43:04 36° SW 17:46:12 10° SSE visible
11 Dec 0.1 17:44:37 10° WSW 17:45:04 10° SW 17:45:31 10° SW visible
